Location: Newark
(13.6797°N, 8.5297°E)
Time: 15:16:42
(UTC+00:00)

Courier 1B Rocket - Pass Details

Date: 26 January 2020
Orbit: 920 x 1202 km, 28.2° (Epoch: 24 February)

Event Time Altitude Azimuth Distance (km) Brightness Sun altitude
Rises 15:29:42 0° 302° (WNW) 3,697 8.4 24.4°
Reaches altitude 10° 15:32:31 10° 307° (NW) 2,710 7.7 23.8°
Maximum altitude 15:38:47 49° 21° (NNE) 1,189 5.5 22.5°
Drops below altitude 10° 15:44:48 10° 96° (E) 2,605 6.8 21.2°
Sets 15:47:28 0° 101° (ESE) 3,543 7.5 20.6°
